| time (UTC) | temp C | wind direction | speed KPH | gust KPH | rain 1hr cm | rain 24hr cm | rain mn cm | humidity % | barometer mb |
| 20260503013044 | 13 | 40 | 3.2 | 6.4 | 0.00 | 0.00 | 0.00 | 49 | 1016.8 |
| 20260503011551 | 14 | 40 | 4.8 | 8.0 | 0.00 | 0.00 | 0.00 | 47 | 1017.0 |
| 20260503004541 | 16 | 324 | 3.2 | 8.0 | 0.00 | 0.00 | 0.00 | 41 | 1017.1 |
| 20260503003052 | 16 | 48 | 4.8 | 12.9 | 0.00 | 0.00 | 0.00 | 42 | 1017.3 |
| 20260503001541 | 15 | 26 | 9.7 | 17.7 | 0.00 | 0.00 | 0.00 | 44 | 1017.4 |
| 20260502234541 | 16 | 180 | 11.3 | 17.7 | 0.00 | 0.00 | 0.00 | 41 | 1017.5 |
| 20260502233041 | 16 | 242 | 9.7 | 19.3 | 0.00 | 0.00 | 0.00 | 41 | 1017.7 |
| 20260502231540 | 16 | 250 | 4.8 | 17.7 | 0.00 | 0.00 | 0.00 | 41 | 1017.9 |
| 20260502224539 | 15 | 120 | 3.2 | 9.7 | 0.00 | 0.00 | 0.00 | 45 | 1018.1 |
| 20260502223039 | 15 | 54 | 8.0 | 14.5 | 0.00 | 0.00 | 0.00 | 43 | 1018.3 |
| 20260502221538 | 15 | 350 | 9.7 | 19.3 | 0.00 | 0.00 | 0.00 | 42 | 1018.7 |
| 20260502214538 | 16 | 207 | 8.0 | 14.5 | 0.00 | 0.00 | 0.00 | 41 | 1018.9 |
| 20260502213041 | 15 | 243 | 3.2 | 9.7 | 0.00 | 0.00 | 0.00 | 44 | 1019.1 |
| 20260502211536 | 15 | 228 | 8.0 | 20.9 | 0.00 | 0.00 | 0.00 | 44 | 1019.3 |
| 20260502204534 | 15 | 309 | 6.4 | 17.7 | 0.00 | 0.00 | 0.00 | 44 | 1019.6 |
| 20260502203041 | 14 | 205 | 8.0 | 12.9 | 0.00 | 0.00 | 0.00 | 44 | 1019.7 |
| 20260502201534 | 14 | 342 | 9.7 | 17.7 | 0.00 | 0.00 | 0.00 | 46 | 1019.8 |
| 20260502194534 | 14 | 333 | 6.4 | 17.7 | 0.00 | 0.00 | 0.00 | 45 | 1019.9 |
| 20260502193031 | 13 | 350 | 8.0 | 17.7 | 0.00 | 0.00 | 0.00 | 46 | 1020.1 |
| 20260502191530 | 14 | 234 | 6.4 | 22.5 | 0.00 | 0.00 | 0.00 | 46 | 1020.2 |
| 20260502184545 | 13 | 324 | 9.7 | 20.9 | 0.00 | 0.00 | 0.00 | 51 | 1020.6 |
| 20260502183044 | 13 | 10 | 4.8 | 14.5 | 0.00 | 0.00 | 0.00 | 52 | 1020.7 |
| 20260502181603 | 13 | 20 | 12.9 | 22.5 | 0.00 | 0.00 | 0.00 | 50 | 1020.7 |
| 20260502163047 | 12 | 300 | 14.5 | 22.5 | 0.00 | 0.00 | 0.00 | 53 | 1020.7 |
| 20260502161546 | 12 | 317 | 11.3 | 19.3 | 0.00 | 0.00 | 0.00 | 56 | 1020.8 |
| 20260502151520 | 10 | 271 | 14.5 | 19.3 | 0.00 | 0.00 | 0.00 | 61 | 1020.9 |
| 20260502123047 | 7 | 30 | 1.6 | 4.8 | 0.00 | 0.00 | 0.00 | 62 | 1019.9 |
| 20260502121546 | 7 | 30 | 3.2 | 4.8 | 0.00 | 0.00 | 0.00 | 60 | 1019.8 |
| 20260502114509 | 7 | 30 | 0.0 | 3.2 | 0.00 | 0.00 | 0.00 | 60 | 1019.7 |
| 20260502113007 | 7 | 30 | 3.2 | 4.8 | 0.00 | 0.00 | 0.00 | 59 | 1019.8 |
| 20260502111507 | 7 | 30 | 4.8 | 6.4 | 0.00 | 0.00 | 0.00 | 59 | 1019.5 |
| 20260502104506 | 8 | 30 | 6.4 | 14.5 | 0.00 | 0.00 | 0.00 | 57 | 1019.6 |
| 20260502103009 | 8 | 51 | 12.9 | 16.1 | 0.00 | 0.00 | 0.00 | 57 | 1019.1 |
| 20260502101502 | 7 | 53 | 11.3 | 16.1 | 0.00 | 0.00 | 0.00 | 58 | 1018.8 |
| 20260502064552 | 11 | 227 | 6.4 | 9.7 | 0.00 | 0.00 | 0.00 | 45 | 1016.9 |
| 20260502063037 | 10 | 244 | 6.4 | 8.0 | 0.00 | 0.00 | 0.00 | 46 | 1017.0 |
| 20260502061533 | 10 | 244 | 6.4 | 8.0 | 0.00 | 0.00 | 0.00 | 46 | 1017.0 |
| 20260502054528 | 9 | 230 | 4.8 | 8.0 | 0.00 | 0.00 | 0.00 | 47 | 1016.9 |
| 20260502053023 | 10 | 224 | 4.8 | 11.3 | 0.00 | 0.00 | 0.00 | 46 | 1016.9 |
| 20260502051530 | 9 | 239 | 6.4 | 11.3 | 0.00 | 0.00 | 0.00 | 45 | 1016.9 |
| 20260502044537 | 10 | 238 | 3.2 | 11.3 | 0.00 | 0.00 | 0.00 | 44 | 1017.0 |
| 20260502043031 | 11 | 217 | 8.0 | 11.3 | 0.00 | 0.00 | 0.00 | 40 | 1017.0 |
| 20260502041533 | 12 | 232 | 3.2 | 6.4 | 0.00 | 0.00 | 0.00 | 39 | 1016.8 |
| 20260502034530 | 11 | 232 | 3.2 | 6.4 | 0.00 | 0.00 | 0.00 | 41 | 1016.6 |
| 20260502033029 | 13 | 225 | 4.8 | 8.0 | 0.00 | 0.00 | 0.00 | 38 | 1016.6 |
| 20260502031529 | 14 | 236 | 4.8 | 6.4 | 0.00 | 0.00 | 0.00 | 37 | 1016.4 |
| 20260502024531 | 16 | 360 | 1.6 | 6.4 | 0.00 | 0.00 | 0.00 | 29 | 1016.2 |
| 20260502023029 | 16 | 13 | 3.2 | 4.8 | 0.00 | 0.00 | 0.00 | 31 | 1016.1 |
| 20260502021530 | 16 | 13 | 0.0 | 3.2 | 0.00 | 0.00 | 0.00 | 31 | 1015.9 |
| 20260502014541 | 16 | 13 | 3.2 | 6.4 | 0.00 | 0.00 | 0.00 | 35 | 1015.8 |